Location: Recife
(8.0585°S, 34.8848°W)
Time: 11:11:20
(UTC-03:00)

Courier 1B Rocket - Pass Details

Date: 22 April 2026
Orbit: 920 x 1201 km, 28.2° (Epoch: 13 May)

Event Time Altitude Azimuth Distance (km) Brightness Sun altitude
Rises 22:28:52 0° 335° (NNW) 3,753 - -77.1°
Reaches altitude 10° 22:33:26 10° 2° (N) 2,737 - -78.2°
Maximum altitude 22:36:13 13° 27° (NNE) 2,498 - -78.8°
Drops below altitude 10° 22:38:57 10° 53° (NE) 2,671 - -79.4°
Sets 22:43:15 0° 80° (E) 3,578 - -80.4°
